Find Starlink 37675

NORAD ID: 100299 Int'l Des: 2026-183 Owner: SPXS Country: US Constellation: starlink operational

現在のビュー

3D地球を読み込み中...

About Starlink 37675

Starlink 37675 (NORAD 100299) is a starlink constellation satellite launched Aug 11, 2026 by SPXS of US. with a mass of 575.00 kg.

次回通過

Passes for default location (London). Set your location on the main map for personalized predictions.

高度履歴

Loading altitude history...

軌道要素

1 A0299U 26183AD 26262.70406271 .00049124 00000-0 88513-3 0 9993
2 A0299 53.1590 261.6504 0001107 76.3829 283.7304 15.49329370 6177
Epoch: Sep 19, 2026 • Age: 29 hours

現在のステータス

高度 433.4 km
遠地点 / 近地点 N/A
速度 7.65 km/s
衛星直下点 -43.03°S, 153.36°E
打ち上げ日 Aug 11, 2026
運用期間 0.1 years
タイプ internet

技術仕様

分類 Payload
質量 575.00 kg
乾燥質量 530.00 kg
長さ 0.30 m
スパン 29.00 m
形状 ? Box + pan
製造者 SPXS
バスタイプ Starlink V2MO
フェーズステータス In Orbit
所有者/国 SPXS/US

Most Searched